Skip Page Navigation
NASA JPL Caltech
NASA Logo - Jet Propulsion Laboratory + View the NASA Portal
+ Center for Near-Earth Object Studies
JPL Home Earth Solar System Stars & Galaxies Technology
JPL Solar System Dynamics
BODIES ORBITS EPHEMERIDES TOOLS PHYSICAL DATA DISCOVERY FAQ SITE MAP
JPL Small-Body Database Browser
Search: [ help ]  
357961 (2006 BG7)
Classification: Main-belt Asteroid          SPK-ID: 2357961
Ephemeris | Orbit Diagram | Orbital Elements | Mission Design | Physical Parameters | Discovery Circumstances ]

[ hide orbit diagram ]

For accurate long-term ephemerides, please instead use our Horizons system.This orbit viewer was implemented using two-body methods, and hence should not be used for determining accurate long-term trajectories (over several years or decades) or planetary encounter circumstances.


[ revert to old Java-based viewer ]

Orbital Elements at Epoch 2459000.5 (2020-May-31.0) TDB
Reference: JPL 9 (heliocentric ecliptic J2000)
 Element Value Uncertainty (1-sigma)   Units 
e .05636968849542318 5.8816e-08  
a 2.204181815573967 1.5846e-08 au
q 2.079932773242786 1.2709e-07 au
i 5.195870035513344 7.8383e-06 deg
node 115.496672070892 6.716e-05 deg
peri 336.4369211596281 0.00010416 deg
M 167.8089851682117 7.7585e-05 deg
tp 2458443.337010675416
(2018-Nov-20.83701068)
0.00025648 TDB
period 1195.279716135523
3.27
1.2889e-05
3.529e-08
d
yr
n .3011847311890488 3.2478e-09 deg/d
Q 2.328430857905148 1.6739e-08 au
  Orbit Determination Parameters
   # obs. used (total)      124  
   data-arc span      4783 days (13.10 yr)  
   first obs. used      2006-01-04  
   last obs. used      2019-02-08  
   planetary ephem.      DE431  
   SB-pert. ephem.      SB431-N16  
   condition code      0  
   norm. resid. RMS      .63726  
   source      ORB  
   producer      Otto Matic  
   solution date      2019-Jul-14 06:23:24  

Additional Information
 Earth MOID = 1.09778 au 
 Jupiter MOID = 2.7494 au 
 T_jup = 3.655 
[ show covariance matrix ]

Ephemeris | Orbit Diagram | Orbital Elements | Mission Design | Physical Parameters | Discovery Circumstances ]

Physical Parameter Table
Parameter Symbol Value Units Sigma Reference Notes
absolute magnitude H 18.1   n/a MPO418817  

357961 (2006 BG7)          Discovered 2006-Jan-21 by Spacewatch at Kitt Peak
Reference: 20130327/Numbers.arcLast Updated: 2013-03-29

Alternate Designations
 2006 BG7 = 2008 WG83 
Ephemeris | Orbit Diagram | Orbital Elements | Mission Design | Physical Parameters | Discovery Circumstances ]
ABOUT SSD CREDITS/AWARDS PRIVACY/COPYRIGHT GLOSSARY LINKS
FirstGov 2020-Sep-28 08:49 UT
(server date/time)  
NASA Home Page
Site Manager:   Ryan S. Park
Webmaster  Alan B. Chamberlin